Overview Statistics Trail Chart Weather Telemetry Raw packets
 

This is the latest recevied weather packets stored in our database for station/object ED4YAF-13. If no packets are shown the sender has not sent any weather packets the latest 10 day(s).

<< 1 2 3 4 5 6 7 >>
Time Temp. Humidity Pressure Rain* Wind** Luminosity Snow
1788549123 22.78° C 26% 1018.2 hPa - - - -
1788548223 23.33° C 26% 1017.8 hPa - - - -
1788546514 23.89° C 25% 1017.2 hPa - - - -
1788545614 24.44° C 24% 1016.8 hPa - - - -
1788544718 25° C 23% 1016.4 hPa - - - -
1788543814 25.56° C 23% 1016 hPa - - - -
1788542941 26.11° C 22% 1015.3 hPa - - - -
1788542018 26.67° C 21% 1014.9 hPa - - - -
1788541112 27.78° C 21% 1014.3 hPa - - - -
1788540217 27.22° C 21% 1014.4 hPa - - - -
1788539317 27.78° C 21% 1014.3 hPa - - - -
1788538412 28.33° C 20% 1013.8 hPa - - - -
1788537516 28.89° C 19% 1013.4 hPa - - - -
1788536612 28.89° C 19% 1013.4 hPa - - - -
1788535712 27.78° C 20% 1014.3 hPa - - - -
1788534816 28.89° C 19% 1013.5 hPa - - - -
1788533907 30° C 18% 1012.8 hPa - - - -
1788532992 29.44° C 17% 1013.4 hPa - - - -
1788532089 30° C 16% 1013 hPa - - - -
1788531189 30° C 16% 1013 hPa - - - -
1788530289 30.56° C 17% 1013.1 hPa - - - -
1788529389 31.11° C 16% 1012.8 hPa - - - -
1788528489 30° C 17% 1013.7 hPa - - - -
1788527594 29.44° C 17% 1014 hPa - - - -
1788526689 30.56° C 16% 1013.3 hPa - - - -

* Rain since midnight (hover to see other rain measurements)
** Current wind speed in m/s (hover to see current wind gust speed)